• In Netherlands
  • List of Countries
  • For 7 days
  • Water Temperature
  • Satellite Maps
  • Weather Map
  • Weather Widgets
  • user-avatar
    Login

    Hourly Weather Brest

    Today, 19 August, Saturday

    Time Temperature Precipitation Wind Pressure Humidity
    00:00 +24°C° 0 mm 3 mps 749 mmHg 66%
    01:00 +24°C° 0 mm 3 mps 749 mmHg 66%
    02:00 +22°C° 0 mm 3 mps 749 mmHg 67%
    03:00 +22°C° 0 mm 3 mps 749 mmHg 68%
    04:00 +22°C° 0 mm 3 mps 749 mmHg 69%
    05:00 +21°C° 0 mm 3 mps 749 mmHg 70%
    06:00 +22°C° 0 mm 4 mps 749 mmHg 67%
    07:00 +25°C° 0 mm 4 mps 749 mmHg 64%
    08:00 +26°C° 0 mm 4 mps 749 mmHg 61%
    09:00 +27°C° 0 mm 5 mps 749 mmHg 56%
    10:00 +29°C° 0 mm 5 mps 749 mmHg 51%
    11:00 +32°C° 0 mm 5 mps 749 mmHg 46%
    12:00 +33°C° 0 mm 5 mps 749 mmHg 43%
    13:00 +33°C° 0 mm 5 mps 749 mmHg 41%
    14:00 +34°C° 0 mm 5 mps 748 mmHg 38%
    15:00 +33°C° 0 mm 5 mps 748 mmHg 41%
    16:00 +33°C° 0 mm 4 mps 748 mmHg 44%
    17:00 +32°C° 0 mm 4 mps 748 mmHg 47%
    18:00 +29°C° 0.2 mm 4 mps 748 mmHg 55%
    19:00 +27°C° 0.2 mm 4 mps 749 mmHg 62%
    20:00 +25°C° 0.2 mm 5 mps 749 mmHg 70%
    21:00 +22°C° 0.8 mm 5 mps 749 mmHg 77%
    22:00 +21°C° 0.8 mm 5 mps 750 mmHg 84%
    23:00 +19°C° 0.8 mm 5 mps 750 mmHg 90%

    Tomorrow, 20 August, Sunday

    Time Temperature Precipitation Wind Pressure Humidity
    00:00 +19°C° 0.3 mm 5 mps 750 mmHg 90%
    01:00 +18°C° 0.3 mm 4 mps 750 mmHg 90%
    02:00 +18°C° 0.3 mm 4 mps 750 mmHg 90%
    03:00 +17°C° 0.1 mm 4 mps 750 mmHg 90%
    04:00 +17°C° 0.1 mm 3 mps 750 mmHg 91%
    05:00 +17°C° 0.1 mm 3 mps 750 mmHg 92%
    06:00 +17°C° 0.2 mm 3 mps 750 mmHg 91%
    07:00 +17°C° 0.2 mm 3 mps 750 mmHg 89%
    08:00 +18°C° 0.2 mm 4 mps 750 mmHg 88%
    09:00 +18°C° 0.3 mm 4 mps 751 mmHg 87%
    10:00 +18°C° 0.3 mm 4 mps 751 mmHg 86%
    11:00 +18°C° 0.3 mm 4 mps 751 mmHg 84%
    12:00 +18°C° 0.5 mm 4 mps 751 mmHg 85%
    13:00 +17°C° 0.5 mm 4 mps 751 mmHg 86%
    14:00 +17°C° 0.5 mm 4 mps 751 mmHg 87%
    15:00 +17°C° 0.7 mm 4 mps 751 mmHg 88%
    16:00 +17°C° 0.7 mm 3 mps 751 mmHg 89%
    17:00 +16°C° 0.7 mm 3 mps 751 mmHg 90%
    18:00 +16°C° 0.6 mm 3 mps 751 mmHg 91%
    19:00 +16°C° 0.6 mm 3 mps 751 mmHg 92%
    20:00 +16°C° 0.6 mm 3 mps 751 mmHg 93%
    21:00 +15°C° 0.3 mm 2 mps 752 mmHg 93%
    22:00 +15°C° 0.3 mm 2 mps 752 mmHg 94%
    23:00 +15°C° 0.3 mm 2 mps 752 mmHg 94%

    Day after tomorrow, 21 August, Monday

    Time Temperature Precipitation Wind Pressure Humidity
    00:00 +14°C° 0.1 mm 2 mps 752 mmHg 94%
    01:00 +14°C° 0.1 mm 1 mps 751 mmHg 94%
    02:00 +14°C° 0.1 mm 1 mps 751 mmHg 94%
    03:00 +14°C° 0.1 mm 1 mps 751 mmHg 94%
    04:00 +14°C° 0.1 mm 1 mps 751 mmHg 94%
    05:00 +13°C° 0.1 mm 1 mps 751 mmHg 94%
    06:00 +14°C° 0 mm 1 mps 751 mmHg 91%
    07:00 +15°C° 0 mm 1 mps 751 mmHg 88%
    08:00 +16°C° 0 mm 1 mps 751 mmHg 85%
    09:00 +18°C° 0 mm 1 mps 751 mmHg 79%
    10:00 +20°C° 0 mm 1 mps 751 mmHg 72%
    11:00 +21°C° 0 mm 1 mps 751 mmHg 66%
    12:00 +21°C° 0.4 mm 1 mps 751 mmHg 63%
    13:00 +22°C° 0.4 mm 1 mps 751 mmHg 61%
    14:00 +22°C° 0.4 mm 1 mps 750 mmHg 59%
    15:00 +22°C° 0.4 mm 1 mps 750 mmHg 60%
    16:00 +22°C° 0.4 mm 1 mps 750 mmHg 61%
    17:00 +21°C° 0.4 mm 1 mps 750 mmHg 63%
    18:00 +20°C° 0.1 mm 1 mps 750 mmHg 69%
    19:00 +19°C° 0.1 mm 1 mps 750 mmHg 75%
    20:00 +16°C° 0.1 mm 1 mps 750 mmHg 81%
    21:00 +16°C° 0 mm 1 mps 750 mmHg 83%
    22:00 +15°C° 0 mm 1 mps 750 mmHg 85%
    23:00 +14°C° 0 mm 1 mps 750 mmHg 88%

    22 August, Tuesday

    Time Temperature Precipitation Wind Pressure Humidity
    00:00 +14°C° 0 mm 2 mps 749 mmHg 89%
    01:00 +14°C° 0 mm 2 mps 749 mmHg 91%
    02:00 +13°C° 0 mm 2 mps 749 mmHg 92%
    03:00 +13°C° 0 mm 2 mps 749 mmHg 93%
    04:00 +13°C° 0 mm 2 mps 749 mmHg 94%
    05:00 +12°C° 0 mm 2 mps 749 mmHg 95%
    06:00 +12°C° 0 mm 3 mps 750 mmHg 91%
    07:00 +13°C° 0 mm 3 mps 750 mmHg 87%
    08:00 +14°C° 0 mm 3 mps 750 mmHg 84%
    09:00 +17°C° 0 mm 4 mps 750 mmHg 78%
    10:00 +18°C° 0 mm 4 mps 750 mmHg 72%
    11:00 +20°C° 0 mm 5 mps 750 mmHg 66%
    12:00 +20°C° 0.1 mm 5 mps 749 mmHg 64%
    13:00 +21°C° 0.1 mm 5 mps 749 mmHg 62%
    14:00 +21°C° 0.1 mm 6 mps 749 mmHg 60%
    15:00 +21°C° 0.1 mm 5 mps 749 mmHg 61%
    16:00 +21°C° 0.1 mm 5 mps 749 mmHg 62%
    17:00 +21°C° 0.1 mm 5 mps 749 mmHg 63%
    18:00 +20°C° 0.1 mm 5 mps 749 mmHg 66%
    19:00 +19°C° 0.1 mm 4 mps 749 mmHg 69%
    20:00 +18°C° 0.1 mm 4 mps 748 mmHg 73%
    21:00 +17°C° 0 mm 4 mps 748 mmHg 75%
    22:00 +17°C° 0 mm 4 mps 748 mmHg 78%
    23:00 +15°C° 0 mm 4 mps 748 mmHg 80%

    23 August, Wednesday

    Time Temperature Precipitation Wind Pressure Humidity
    00:00 +15°C° 0 mm 4 mps 748 mmHg 83%
    01:00 +14°C° 0 mm 4 mps 748 mmHg 86%
    02:00 +14°C° 0 mm 4 mps 748 mmHg 90%
    03:00 +13°C° 0 mm 4 mps 748 mmHg 91%
    04:00 +13°C° 0 mm 4 mps 748 mmHg 93%
    05:00 +12°C° 0 mm 4 mps 748 mmHg 95%
    06:00 +13°C° 0 mm 4 mps 749 mmHg 91%
    07:00 +14°C° 0 mm 4 mps 749 mmHg 86%
    08:00 +15°C° 0 mm 4 mps 749 mmHg 81%
    09:00 +18°C° 0 mm 4 mps 749 mmHg 74%
    10:00 +19°C° 0 mm 5 mps 749 mmHg 67%
    11:00 +21°C° 0 mm 5 mps 749 mmHg 60%
    12:00 +21°C° 0 mm 5 mps 749 mmHg 57%
    13:00 +22°C° 0 mm 5 mps 749 mmHg 54%
    14:00 +23°C° 0 mm 5 mps 748 mmHg 51%
    15:00 +22°C° 0.1 mm 5 mps 748 mmHg 53%
    16:00 +22°C° 0.1 mm 5 mps 748 mmHg 54%
    17:00 +22°C° 0.1 mm 4 mps 748 mmHg 55%
    18:00 +20°C° 0 mm 4 mps 748 mmHg 61%
    19:00 +19°C° 0 mm 3 mps 748 mmHg 67%
    20:00 +17°C° 0 mm 3 mps 748 mmHg 72%
    21:00 +16°C° 0 mm 3 mps 748 mmHg 76%
    22:00 +16°C° 0 mm 3 mps 748 mmHg 80%
    23:00 +15°C° 0 mm 2 mps 748 mmHg 83%

    24 August, Thursday

    Time Temperature Precipitation Wind Pressure Humidity
    00:00 +14°C° 0.1 mm 3 mps 748 mmHg 84%
    01:00 +14°C° 0.1 mm 3 mps 748 mmHg 85%
    02:00 +14°C° 0.1 mm 3 mps 748 mmHg 86%
    03:00 +13°C° 0 mm 3 mps 748 mmHg 88%
    04:00 +13°C° 0 mm 3 mps 748 mmHg 89%
    05:00 +12°C° 0 mm 3 mps 748 mmHg 91%
    06:00 +13°C° 0 mm 3 mps 749 mmHg 87%
    07:00 +14°C° 0 mm 4 mps 749 mmHg 84%
    08:00 +14°C° 0 mm 4 mps 749 mmHg 81%
    09:00 +17°C° 0 mm 4 mps 749 mmHg 73%
    10:00 +18°C° 0 mm 4 mps 750 mmHg 66%
    11:00 +20°C° 0 mm 4 mps 750 mmHg 58%
    12:00 +21°C° 0 mm 5 mps 750 mmHg 55%
    13:00 +21°C° 0 mm 5 mps 750 mmHg 52%
    14:00 +22°C° 0 mm 5 mps 750 mmHg 48%
    15:00 +22°C° 0 mm 5 mps 750 mmHg 49%
    16:00 +22°C° 0 mm 5 mps 750 mmHg 50%
    17:00 +22°C° 0 mm 5 mps 750 mmHg 50%
    18:00 +20°C° 0 mm 4 mps 750 mmHg 56%
    19:00 +18°C° 0 mm 3 mps 750 mmHg 62%
    20:00 +17°C° 0 mm 2 mps 750 mmHg 68%
    21:00 +16°C° 0 mm 2 mps 751 mmHg 71%
    22:00 +15°C° 0 mm 2 mps 751 mmHg 74%
    23:00 +14°C° 0 mm 2 mps 751 mmHg 77%
    Show more